Вернуться в каталог

DELTA 2 R/B(2)

АктивенGTO
NORAD 22098·ROCKET BODY·🇺🇸 United States

Запущен Aug 31, 1992 с Cape Canaveral Space Force Station

Loading…

TLE

УстаревающийSource: Space-Track

Эпоха: Sep 14, 2026, 10:15 UTC

1 22098U 92057C   26257.42749065 -.00000071  00000-0  00000-0 0  9992
2 22098  20.1476 275.3106 6762346 176.7821 356.9053  2.17559282270509

Отслеживайте DELTA 2 R/B(2) в реальном времени с AllMySat

Download on the App Store